Regional Weather Roundup
Issued by NWS

Home | Current Version | Previous Version | Text Only | Print | Product List | Glossary On
Versions: 1 2 3 4 5 6 7 8 9 10 11 12 13 14 15 16 17 18 19 20 21 22 23 24 25 26 27
000
ASUS44 KJAN 102210
RWRMS

MISSISSIPPI HOURLY WEATHER ROUNDUP
NATIONAL WEATHER SERVICE JACKSON MS
400 PM CST SAT DEC 10 2016

NOTE: "FAIR: INDICATES FEW OR NO CLOUDS BELOW 12,000 FEET WITH NO
SIGNIFICANT WEATHER AND/OR OBSTRUCTIONS TO VISIBILITY.

MSZ001>002-007>008-010>013-018>021-025>028-034>036-102300-
NORTHWEST MISSISSIPPI

CITY           SKY/WX    TMP DP  RH WIND       PRES   REMARKS
CLEVELAND      FAIR      46  26  45 S5        30.42F
GREENWOOD      CLEAR     50   6  16 S6        30.40F
GREENVILLE     CLEAR     46  22  38 SE6       30.40F
OXFORD         FAIR      45   9  23 SE3       30.43S
WINONA         FAIR      48  10  21 CALM      30.40F
$$

MSZ003>006-009-014>017-022>024-029>033-037>039-102300-
NORTHEAST MISSISSIPPI

CITY           SKY/WX    TMP DP  RH WIND       PRES   REMARKS
COLUMBUS AFB   CLEAR     48  19  31 CALM      30.42F
STARKVILLE     FAIR      46  18  31 E3        30.43F
TUPELO         CLEAR     46  11  24 E5        30.42F
$$

MSZ040-058-102300-
CENTRAL MISSISSIPPI

CITY           SKY/WX    TMP DP  RH WIND       PRES   REMARKS
JACKSON INTL   CLEAR     52  18  26 NE3       30.40F
JACKSON HAWKNS CLEAR     52  15  23 E3        30.40F
MADISON        FAIR      50  18  27 CALM      30.40F
MERIDIAN KEY   CLEAR     52  13  21 E8        30.42S
MERIDIAN NAS   CLEAR     51  12  21 E7        30.43F
VICKSBURG VKS  CLEAR     55  14  19 CALM      30.39F
$$

MSZ059>079-102300-
SOUTH MISSISSIPPI

CITY           SKY/WX    TMP DP  RH WIND       PRES   REMARKS
BROOKHAVEN     FAIR     N/A N/A N/A CALM      30.41S
COLUMBIA       FAIR      54  14  20 NE3       30.44R
HATTIESBURG    CLEAR     53  13  20 NE5       30.42S
LAUREL         FAIR      52  12  20 NE5       30.42S
MCCOMB         SUNNY     54  10  17 NE3       30.40S
NATCHEZ        SUNNY     54  18  24 E7        30.39F
PINE BELT      CLEAR     52  14  22 E3        30.43S
$$

MSZ080>082-102300-
COASTAL MISSISSIPPI

CITY           SKY/WX    TMP DP  RH WIND       PRES   REMARKS
BAY ST LOUIS   CLEAR     54   3  13 VRB6      30.41R
BILOXI         CLEAR     54  20  26 NE5       30.39R
PASCAGOULA     CLEAR     54  16  22 NE7       30.39S
GULFPORT       CLEAR     55  18  23 NE7       30.40R
$$

LAZ007>009-015>016-023>026-102300-
NORTHEAST LOUISIANA

CITY           SKY/WX    TMP DP  RH WIND       PRES   REMARKS
BASTROP        FAIR      50  22  32 CALM      30.41S
TALLULAH/VBURG CLEAR     52  18  26 CALM      30.41F
VIDALIA        FAIR      53  25  33 CALM      30.42F
$$




USA.gov is the U.S. government's official web portal to all federal, state and local government web resources and services.